Location: Albuquerque Trailhead
(34.7934°N, 106.3736°W)
Time: 11:28:49
(UTC+00:00)

Exosat Rocket - Pass Details

Date: 28 October 2021
Orbit: 759 x 2516 km, 72.3° (Epoch: 08 December)

Event Time Altitude Azimuth Distance (km) Brightness Sun altitude
Exits shadow 08:47:10 - 122° (ESE) 4,008 7.3 -55.8°
Reaches altitude 10° 08:48:53 10° 113° (ESE) 3,811 7.2 -55.5°
Maximum altitude 08:53:47 15° 82° (E) 3,760 7.3 -54.6°
Drops below altitude 10° 08:59:24 10° 52° (NE) 4,532 7.8 -53.6°
Sets 09:05:20 0° 34° (NE) 5,846 8.5 -52.5°
